www.pogodaiklimat.ru

Погода и климат >> Архив погоды >> Россия >> Магаданская область >> Эвенск


ПОГОДА в Эвенске

  • Прогноз погоды в Эвенске
  • Монитор погоды в Эвенске
  • Климат города

АРХИВ ПОГОДЫ в Эвенске

Время (UTC), дата Ветер
(напр.,м/с)
 
Видим.   Явления Облачность Т
(С)
Тd
(С)
f
(%)
Тe
(С)
Тes
(С)
Комфортность P
(гПа)
Po
(гПа)
Тmin
(С)
Tmax
(С)
R
(мм)
S
(см)
03 16.03 СВ 3 50 км 9/3 1000 м
[Cb calv Ac trans Ci]
+0.2 -4.9 69 -4 -3 1015.1 1013.6
06 16.03 С 6
{11}
50 км 9/6 1000 м
[Cb calv Ac trans]
-0.6 -5.2 71 -7 -7 1013.8 1012.3
09 16.03 С 3 50 км 10/8 600 м
[Cb calv Ac und]
-1.3 -4.6 78 -6 -6 1013.6 1012.1 +0.5
12 16.03 С 4 4000 м слабый ливневой снег 10/8 600 м
[Cb cap Ac und]
-1.1 -3.6 83 -7 -7 1013.7 1012.2
15 16.03 СВ 3 20 км слабый ливневой снег 10/8 600 м
[Cb cap Ac und]
-1.8 -4.5 82 -7 -7 1013.8 1012.3
18 16.03 СВ 3 20 км осадки на расстоянии {ливн. осадки} 10/8 600 м
[Cb calv Ac und]
-2.0 -5.0 80 -7 -7 1013.9 1012.4
21 16.03 С 5 50 км 9/3 600 м
[Cb calv Ac trans]
-1.1 -5.0 75 -7 -7 1014.5 1013.0 -2.3 0.0 13
00 17.03 С 5 50 км 5/1 1000 м
[Sc Ac trans]
+0.7 -4.4 69 -5 -3 1015.3 1013.8
03 17.03 С 3 50 км 3/0
[Ci fib]
+2.1 -4.0 64 -2 +1 1015.2 1013.8
06 17.03 С 3 50 км 1/0
[Ci fib]
+0.4 -4.8 68 -4 -3 1015.8 1014.3
09 17.03 С 5 50 км ясно -1.6 -6.7 68 -8 -8 1016.5 1015.0 +2.2
12 17.03 С 4 50 км ясно -1.0 -6.9 64 -6 -6 1016.8 1015.3
15 17.03 С 4 50 км 10/0
[Ac und]
-0.9 -5.6 70 -6 -6 1016.8 1015.3
18 17.03 С 4
{10}
10 км слабый ливневой снег 10/8 600 м
[Cb cap Ac und]
+0.3 -3.9 73 -5 -5 1017.1 1015.6
21 17.03 С 4 4000 м слабый ливневой снег 10/8 600 м
[Cb cap Ac und]
-0.6 -3.4 81 -6 -6 1017.5 1016.0 -2.2 0.0 13
00 18.03 С 6
{11}
50 км {ливн. осадки} 9/8 1000 м
[Sc Ac trans]
+1.5 -4.1 66 -4 -4 1016.8 1015.3
03 18.03 СВ 5
{11}
50 км 9/6 1000 м
[Sc Ac trans]
+0.9 -4.0 70 -5 -4 1015.4 1013.9
06 18.03 С 5
{11}
50 км 9/4 1000 м
[Sc Ac trans Ci fib]
-0.2 -4.2 74 -6 -6 1014.8 1013.3
09 18.03 СВ 6-10
{11}
50 км 10/5 1000 м
[Sc Ac und]
-0.7 -3.6 81 -7 -7 1014.9 1013.4 +2.1 0.0
12 18.03 СВ 5
{11}
50 км 10/6 1000 м
[Sc Ac und]
-1.7 -4.5 81 -8 -8 1014.1 1012.6
15 18.03 СВ 4
{11}
50 км 9/3 1000 м
[Sc Ac trans]
-2.7 -5.5 81 -9 -9 1012.9 1011.4
18 18.03 С 4
{10}
50 км 10/4 1000 м
[Sc Ac und]
-3.0 -6.2 79 -9 -9 1012.8 1011.3
21 18.03 С 4
{11}
50 км 9/5 600 м
[Cb calv Ac und]
-3.0 -6.6 76 -9 -9 1012.5 1011.0 -3.2 13
00 19.03 С 5
{10}
4000 м слабый ливневой снег 10/8 600 м
[Cb cap Ac und]
-3.2 -5.1 87 -10 -10 1012.4 1010.9
03 19.03 С 5-10
{11}
4000 м слабый ливневой снег 10/8 600 м
[Cb cap Ac und]
-2.5 -6.2 76 -9 -9 1011.5 1010.0
06 19.03 СВ 9-14
{14}
50 км позёмок {ливн. осадки, метель} 10/6 600 м
[Cb calv Ac und]
-2.8 -7.1 72 -11 -11 1011.2 1009.7
09 19.03 С 5-11
{14}
50 км {метель} 10/6 600 м
[Cb calv Ac und]
-3.2 -7.7 71 -10 -10 1012.2 1010.7 -2.2 2
12 19.03 СВ 7-11
{12}
10 км слабый ливневой снег {метель} 10/8 600 м
[Cb cap Ac und]
-3.7 -6.5 81 -12 -12 1012.8 1011.3
15 19.03 СВ 7-11
{12}
4000 м слабый ливневой снег {метель} 10/8 600 м
[Cb cap Ac und]
-3.9 -6.7 81 -12 -12 1012.2 1010.7
18 19.03 С 7-13
{13}
50 км позёмок {ливн. осадки, метель} 10/6 600 м
[Cb calv Ac und]
-3.4 -7.7 72 -11 -11 1012.8 1011.3
21 19.03 С 6-12
{13}
4000 м слабый ливневой снег {метель} 10/6 600 м
[Cb cap Ac und]
-4.0 -8.1 73 -11 -11 1014.0 1012.5 -5.0 0.3 13
00 20.03 С 8-15
{15}
4000 м слабый ливневой снег {метель} 10/6 600 м
[Cb cap Ac und]
-3.9 -7.8 74 -12 -12 1014.7 1013.2
03 20.03 СВ 9-16
{16}
50 км позёмок {ливн. осадки, метель} 10/4 600 м
[Cb calv Ac und]
-3.6 -8.1 71 -12 -12 1014.6 1013.1
06 20.03 СВ 8-14
{15}
50 км позёмок {ливн. осадки, метель} 10/4 600 м
[Cb calv Ac und]
-3.9 -8.0 73 -12 -12 1014.6 1013.1
09 20.03 СВ 8-13
{14}
10 км слабый ливневой снег {метель} 10/6 600 м
[Cb cap Ac und]
-4.4 -8.5 73 -13 -13 1015.8 1014.3 -3.4 0.0
12 20.03 СВ 7-12
{15}
10 км метель {ливн. осадки} 10/8 600 м
[Cb calv Ac und]
-5.0 -9.0 73 -13 -13 1016.3 1014.8
15 20.03 СВ 7-13
{15}
10 км метель {ливн. осадки} 10/8 600 м
[Cb calv Ac und]
-5.1 -9.1 73 -13 -13 1016.2 1014.7
18 20.03 СВ 8-12
{16}
10 км метель {ливн. осадки} 10/8 600 м
[Cb calv Ac und]
-5.3 -9.1 75 -14 -14 1016.4 1014.9
21 20.03 СВ 7-12
{14}
10 км осадки на расстоянии {метель} 9/6 600 м
[Cb calv Ac und]
-4.9 -9.1 72 -13 -13 1017.3 1015.7 -5.5 0.3 12
00 21.03 СВ 6-11
{12}
2000 м ливневой снег {метель} 10/10 600 м
[Cb cap]
-4.4 -7.3 80 -12 -12 1018.0 1016.5
03 21.03 СВ 7-13
{13}
4000 м слабый ливневой снег {метель} 10/8 600 м
[Cb cap Ac und]
-3.5 -7.5 74 -11 -11 1017.5 1016.0
06 21.03 СВ 6-12
{13}
50 км {ливн. осадки} 9/5 1000 м
[Sc Ac trans]
-2.9 -7.5 71 -10 -10 1017.8 1016.3
09 21.03 СВ 6-11
{13}
50 км позёмок {метель} 9/6 1000 м
[Sc Ac trans]
-4.8 -9.2 71 -12 -12 1018.4 1016.8 -2.3 0.6
12 21.03 СВ 6-10
{13}
50 км {метель} 10/6 600 м
[Cb calv Ac und]
-3.9 -9.3 66 -11 -11 1018.5 1017.0
15 21.03 С 5
{11}
50 км 10/4 600 м
[Cb calv Ac und]
-3.6 -10.0 61 -10 -10 1018.8 1017.3
18 21.03 СВ 6
{10}
50 км 10/4 600 м
[Cb calv Ac und]
-4.3 -10.3 63 -12 -12 1018.5 1017.0
21 21.03 СВ 6-10
{11}
50 км 8/3 600 м
[Cb calv Ac trans Cc]
-4.3 -10.2 63 -12 -11 1018.6 1017.1 -5.6 13
00 22.03 СВ 7-12
{13}
50 км 9/5 600 м
[Cb calv Ac trans]
-4.0 -9.7 64 -12 -11 1018.5 1017.0
03 22.03 СВ 7-11
{12}
50 км 9/3 600 м
[Cb calv Ac trans Ci fib]
-2.1 -7.3 68 -9 -9 1017.9 1016.4
06 22.03 СВ 7-11
{12}
50 км 8/1 600 м
[Cb calv Ci fib]
-3.1 -7.5 72 -11 -11 1017.3 1015.8
09 22.03 СВ 6-11
{12}
50 км 4/4 1000 м
[Sc]
-4.3 -9.1 69 -12 -12 1017.7 1016.1 -1.9
12 22.03 СВ 8-11
{12}
50 км 10/5 1000 м
[Sc Ac und]
-3.4 -8.5 68 -12 -12 1017.7 1016.2
15 22.03 СВ 8-11
{13}
10 км слабый ливневой снег {метель} 10/8 600 м
[Cb cap Ac und]
-4.1 -8.8 70 -12 -12 1017.7 1016.1
18 22.03 СВ 6-11
{13}
4000 м слабый ливневой снег {метель} 10/10 600 м
[Cb cap]
-4.6 -8.6 74 -12 -12 1017.7 1016.2
21 22.03 СВ 7-12
{12}
50 км {ливн. осадки} 10/6 600 м
[Cb calv Ac und]
-4.1 -8.6 71 -12 -12 1018.1 1016.5 -5.0 0.0 12

 

Местоположение метеостанции Эвенск (Магаданская область, Россия): широта 61.92 долгота 159.20 высота над уровнем моря 12 м.

В архиве по умолчанию представлена погода в Эвенске за последнюю неделю. Архивные данные за месяц целиком и за предыдущие месяцы, начиная с января 2011 года, Вы можете получить, выбрав интересующий диапазон дат из раскрывающегося списка и нажав кнопку "Ввод!".

Внимание! Время в таблицах - всемирное. Для получения местного времени необходимо прибавить поправку, которая в Эвенске равна 11 ч.

Смотрите также архив погоды в соседних городах и на ближайших метеорологических станциях:

Погода в Лабазной (Магаданская область, Россия) (158 км)
Погода в Омсукчане (Магаданская область, Россия) (188 км)
Погода в Шелихова (Магаданская область, Россия) (225 км)
Погода в Чемурнауте (Камчатский край, Россия) (242 км)
Погода в Кегали (Магаданская область, Россия) (275 км)
Погода в Палане (Камчатский край, Россия) (318 км)
Погода в Балыгычане (Магаданская область, Россия) (340 км)
Погода в Верхне-Пенжино (Камчатский край, Россия) (359 км)
Погода в Среднекане (Магаданская область, Россия) (363 км)
Погода в Оссоре (Камчатский край, Россия) (364 км)

Пояснения к столбцам:

Ветер - указаны скорость ветра в м/с - средняя за 10 мин, порывы в срок и между сроками (в фигурных скобках) и направление, откуда дует ветер: С - северный, СВ - северо-восточный, В - восточный, ЮВ - юго-восточный, Ю - южный, ЮЗ - юго-западный, З - западный, СЗ - северо-западный.
Видимость - горизонтальная дальность видимости в метрах или километрах. При видимости от 1 до 10 км при отсутствии осадков обычно наблюдается дымка, при ухудшении видимости до 1 км и менее - туман. В сухую погоду видимость может ухудшаться дымом, пылью или мглою.
Явления - указаны атмосферные явления, наблюдавшиеся в срок или в последний час перед сроком; фигурными скобками обозначены явления, наблюдавшиеся между сроками (за 1-3 часа до срока); квадратными скобками обозначены град или гололедные отложения с указанием их диаметра в мм.
Облачность - указаны через наклонную черту общая и нижняя облачность в баллах и высота нижней границы облаков в метрах; квадратными скобками обозначены формы облаков: Ci - перистые, Cs - перисто-слоистые, Cc - перисто-кучевые, Ac - высококучевые, As - высокослоистые, Sc - слоисто-кучевые, Ns - слоисто-дождевые, Cu - кучевые, Cb - кучево-дождевые. Подробнее классификацию облаков см. в Атласе облаков (PDF).
T - Температура воздуха - температура, измеренная на высоте 2 м над землей.
Td - Температура точки росы - температура, при понижении до которой содержащийся в воздухе водяной пар достигнет насыщения.
f - Относительная влажность воздуха - влажноcть воздуха, измеренная на высоте 2 м над землей.
Te - Эффективная температура - температура, которую ощущает одетый по сезону человек в тени. Характеристика душности погоды. При расчете учитывается влияние влажности воздуха и скорости ветра на теплоощущения человека.
Tes - Эффективная температура на солнце - температура, которую ощущает человек, с поправкой на солнечный нагрев. Характеристика знойности погоды. Зависит от высоты солнца над горизонтом, облачности и скорости ветра. Ночью, в пасмурную погоду, а также при ветре 12 м/с и более поправка равна нулю.
P - Атмосферное давление - приведенное к уровню моря атмосферное давление.
Po - Атмосферное давление - измеренное на уровне метеостанции атмосферное давление.
Tmin - Минимальная температура - минимум температуры воздуха на высоте 2 м над землей.
Tmax - Максимальная температура - максимум температуры воздуха на высоте 2 м над землей.
R - Количество осадков - Количество выпавших осадков, мм. При наведении курсора мыши на число - период времени, за который выпало указанное количество осадков.
S - Снежный покров - Высота снежного покрова, см. При наведении курсора мыши на число - состояние снежного покрова и степень покрытия местности в баллах.